Sioux City, IA

8:19 PM CST on December 15, 2019 (GMT -0600)
Sioux Gateway

Weather History for KSUX - November, 2019

Change the Weather History Date:

Monday, November 18, 2019

  Actual Average Record
Temperature  
Mean Temperature 41 °F 34 °F  
Max Temperature 59 °F 45 °F 73 °F (1941)
Min Temperature 23 °F 24 °F 3 °F (2014)
Degree Days  
Heating Degree Days 24 31  
Month to date heating degree days 587 464  
Since 1 July heating degree days 1230 1064  
Cooling Degree Days 0 0  
Month to date cooling degree days 0 0  
Year to date cooling degree days 910 869  
Moisture  
Dew Point 36 °F    
Average Humidity 82    
Maximum Humidity 100    
Minimum Humidity 55    
Precipitation  
Precipitation T in 0.04 in 1.42 in (1941)
Month to date precipitation 0.18 0.80  
Year to date precipitation 30.69 26.43  
Snow  
Snow 0.00 in 0.20 in 3.70 in (1957)
Month to date snowfall 2.1 2.0  
Since 1 July snowfall 2.1 3.0  
Since 1 September snowfall 2.1 3.0  
Snow Depth 0.00 in    
Sea Level Pressure  
Sea Level Pressure 29.75 in    
Wind  
Wind Speed 7 mph ()    
Max Wind Speed 28 mph    
Max Gust Speed 39 mph    
Visibility 8.7 miles    
Events Rain    
T = Trace of Precipitation, MM = Missing Value Source: Averaged Metar Reports

Daily Weather History Graph

Daily Weather History Graph

Search for Another Location

Airport or City:

Astronomy

Nov. 18, 2019 Rise Set
Actual Time 7:19 AM CST 5:01 PM CST
Civil Twilight 6:49 AM CST 5:31 PM CST
Nautical Twilight 6:15 AM CST 6:05 PM CST
Astronomical Twilight 5:41 AM CST 6:38 PM CST
Moon 10:47 PM CST (11/18) 12:52 PM CST (11/18)
Length of Visible Light 10h 42m
Length of Day
9h 41m
Waning Gibbous, 63% of the Moon is Illuminated
Nov 18
Waning Gibbous
Nov 19
Last Quarter
Nov 26
New
Dec 4
First Quarter
Dec 11
Full

Hourly Weather History & Observations

Time (CST) Temp. Windchill Dew Point Humidity Pressure Visibility Wind Dir Wind Speed Gust Speed Precip Events Conditions
12:32 AM 25.0 °F 17.1 °F 24.1 °F 96% 29.83 in 1.8 mi ESE 6.9 mph - N/A   Clear
12:48 AM 26.6 °F 19.1 °F 26.6 °F 100% 29.83 in 3.0 mi ESE 6.9 mph - N/A   Clear
12:52 AM 26.1 °F 18.4 °F 26.1 °F 100% 29.86 in 4.0 mi ESE 6.9 mph - N/A   Clear
1:52 AM 28.9 °F 20.4 °F 28.0 °F 96% 29.82 in 8.0 mi ESE 9.2 mph - N/A   Clear
2:52 AM 30.0 °F 21.7 °F 28.9 °F 96% 29.81 in 8.0 mi ESE 9.2 mph - N/A   Clear
3:52 AM 30.9 °F 22.8 °F 30.0 °F 96% 29.79 in 8.0 mi ESE 9.2 mph - N/A   Overcast
4:52 AM 32.0 °F 23.6 °F 30.9 °F 96% 29.77 in 8.0 mi SE 10.4 mph - N/A   Mostly Cloudy
5:52 AM 34.0 °F 26.6 °F 32.0 °F 92% 29.75 in 9.0 mi SE 9.2 mph - N/A   Mostly Cloudy
6:52 AM 34.0 °F 27.2 °F 32.0 °F 92% 29.75 in 9.0 mi SE 8.1 mph - N/A   Overcast
7:52 AM 35.1 °F 30.1 °F 33.1 °F 92% 29.75 in 8.0 mi ESE 5.8 mph - 0.00 in   Overcast
8:52 AM 37.0 °F 34.5 °F 34.0 °F 89% 29.75 in 10.0 mi SE 3.5 mph - N/A   Overcast
9:52 AM 42.1 °F 40.2 °F 35.1 °F 76% 29.73 in 10.0 mi SE 3.5 mph - 0.00 in   Mostly Cloudy
10:52 AM 46.9 °F - 37.0 °F 68% 29.71 in 10.0 mi SE 4.6 mph - N/A   Scattered Clouds
11:52 AM 50.0 °F - 37.0 °F 61% 29.69 in 10.0 mi Calm Calm - N/A   Mostly Cloudy
12:52 PM 51.1 °F - 37.9 °F 61% 29.66 in 10.0 mi Calm Calm - 0.00 in Rain Light Rain
1:52 PM 55.0 °F - 39.0 °F 55% 29.64 in 10.0 mi ESE 3.5 mph - 0.00 in   Overcast
2:52 PM 57.0 °F - 41.0 °F 55% 29.63 in 10.0 mi Calm Calm - N/A   Mostly Cloudy
3:52 PM 55.0 °F - 44.1 °F 67% 29.64 in 10.0 mi NW 11.5 mph - 0.00 in Rain Light Rain
4:52 PM 53.1 °F - 45.0 °F 74% 29.67 in 10.0 mi NW 19.6 mph - 0.00 in   Mostly Cloudy
5:52 PM 52.0 °F - 45.0 °F 77% 29.70 in 10.0 mi NW 15.0 mph - 0.00 in   Mostly Cloudy
6:52 PM 51.1 °F - 44.1 °F 77% 29.72 in 10.0 mi NW 15.0 mph 24.2 mph N/A   Overcast
7:52 PM 50.0 °F - 43.0 °F 77% 29.76 in 10.0 mi NNW 25.3 mph 34.5 mph N/A   Overcast
8:52 PM 48.9 °F - 42.1 °F 77% 29.76 in 10.0 mi NNW 16.1 mph - N/A   Overcast
9:52 PM 46.0 °F 39.9 °F 41.0 °F 83% 29.78 in 10.0 mi NW 13.8 mph - N/A   Clear
10:52 PM 42.1 °F 36.6 °F 39.0 °F 89% 29.79 in 10.0 mi NW 9.2 mph - N/A   Clear
11:52 PM 39.9 °F 35.1 °F 37.9 °F 93% 29.80 in 10.0 mi WNW 6.9 mph - N/A   Clear